Cold Bay, AK

9:08 AM AKST on December 02, 2016 (GMT -0900)
Cold Bay

Weather History for PACD - November, 2012

Change the Weather History Date:

Monday, November 12, 2012

  Actual Average Record
Temperature  
Mean Temperature 35 °F 35 °F  
Max Temperature 45 °F 40 °F 48 °F (1959)
Min Temperature 25 °F 30 °F 12 °F (1963)
Degree Days  
Heating Degree Days 30 30  
Month to date heating degree days 374 350  
Since 1 July heating degree days 2640 2457  
Cooling Degree Days 0 0  
Month to date cooling degree days 0 0  
Year to date cooling degree days 0 0  
Moisture  
Dew Point 34 °F    
Average Humidity 92    
Maximum Humidity 100    
Minimum Humidity 85    
Precipitation  
Precipitation 0.54 in 0.16 in 3.78 in (2000)
Month to date precipitation 2.03 1.90  
Year to date precipitation 37.91 34.13  
Snow  
Snow 0.00 in 0.30 in 1.60 in (1977)
Month to date snowfall 1.7 3.2  
Since 1 July snowfall 2.7 5.6  
Since 1 September snowfall 2.7 5.6  
Snow Depth 0.00 in    
Sea Level Pressure  
Sea Level Pressure 29.93 in    
Wind  
Wind Speed 19 mph (SE)    
Max Wind Speed 41 mph    
Max Gust Speed 52 mph    
Visibility 9 miles    
Events Rain    
T = Trace of Precipitation, MM = Missing Value Source: NWS Daily Summary

Daily Weather History Graph

Daily Weather History Graph

Search for Another Location

Airport or City:

Trip Planner

Search our weather history database for the weather conditions in past years. The results will help you decide how hot, cold, wet, or windy it might be!

Date:

Astronomy

Nov. 12, 2012 Rise Set
Actual Time 9:19 AM AKST 5:50 PM AKST
Civil Twilight 8:38 AM AKST 6:30 PM AKST
Nautical Twilight 7:54 AM AKST 7:15 PM AKST
Astronomical Twilight 7:11 AM AKST 7:58 PM AKST
Moon 7:53 AM AKST (11/12) 5:07 PM AKST (11/12)
Length of Visible Light 9h 52m
Length of Day
8h 30m
Waning Crescent, 2% of the Moon is Illuminated
Nov 12
Waning Crescent
Nov 13
New
Nov 20
First Quarter
Nov 28
Full
Dec 6
Last Quarter

Hourly Weather History & Observations

Time (AKST) Temp. Windchill Dew Point Humidity Pressure Visibility Wind Dir Wind Speed Gust Speed Precip Events Conditions
12:53 AM 33.1 °F 28.7 °F 32.0 °F 96% 30.12 in 10.0 mi NNW 4.6 mph - N/A   Overcast
1:12 AM 33.8 °F 27.7 °F 30.2 °F 87% 30.12 in 10.0 mi North 6.9 mph - N/A   Mostly Cloudy
1:22 AM 32.0 °F 26.4 °F 30.2 °F 93% 30.12 in 10.0 mi NNW 5.8 mph - N/A   Mostly Cloudy
1:53 AM 33.1 °F 30.0 °F 32.0 °F 96% 30.12 in 8.0 mi North 3.5 mph - N/A   Overcast
2:26 AM 32.0 °F 26.4 °F 30.2 °F 93% 30.11 in 10.0 mi NNE 5.8 mph - N/A   Mostly Cloudy
3:07 AM 30.2 °F - 30.2 °F 100% 30.10 in 10.0 mi Calm Calm - N/A   Scattered Clouds
3:53 AM 30.0 °F 26.5 °F 28.9 °F 96% 30.10 in 10.0 mi North 3.5 mph - N/A   Clear
4:53 AM 28.0 °F - 27.0 °F 96% 30.10 in 9.0 mi Calm Calm - N/A   Clear
5:53 AM 27.0 °F 23.0 °F 26.1 °F 96% 30.09 in 10.0 mi SSW 3.5 mph - N/A   Clear
6:53 AM 26.1 °F - 24.1 °F 92% 30.09 in 10.0 mi Calm Calm - N/A   Clear
7:53 AM 26.1 °F - 24.1 °F 92% 30.09 in 10.0 mi Calm Calm - N/A   Clear
8:22 AM 30.2 °F 21.3 °F 28.4 °F 93% 30.07 in 10.0 mi SE 10.4 mph - N/A   Mostly Cloudy
8:53 AM 33.1 °F 27.7 °F 30.9 °F 92% 30.07 in 10.0 mi SE 5.8 mph - N/A   Overcast
9:53 AM 35.1 °F 27.9 °F 33.1 °F 92% 30.04 in 10.0 mi SSE 9.2 mph - N/A   Overcast
10:53 AM 36.0 °F 25.0 °F 33.1 °F 89% 30.01 in 10.0 mi SE 20.7 mph 28.8 mph N/A   Mostly Cloudy
11:11 AM 35.6 °F 23.7 °F 33.8 °F 93% 30.01 in 10.0 mi SE 24.2 mph 28.8 mph N/A   Partly Cloudy
11:53 AM 37.0 °F 24.9 °F 33.1 °F 86% 30.00 in 10.0 mi SE 27.6 mph 38.0 mph N/A   Scattered Clouds
12:46 PM 37.4 °F 25.0 °F 33.8 °F 87% 29.98 in 10.0 mi SSE 29.9 mph 39.1 mph N/A   Mostly Cloudy
12:53 PM 37.9 °F 25.7 °F 34.0 °F 86% 29.98 in 10.0 mi SE 29.9 mph 39.1 mph N/A   Mostly Cloudy
1:13 PM 37.4 °F 24.4 °F 33.8 °F 87% 29.98 in 10.0 mi SSE 33.4 mph 40.3 mph N/A   Scattered Clouds
1:35 PM 39.2 °F 26.8 °F 35.6 °F 87% 29.97 in 10.0 mi SE 33.4 mph 40.3 mph N/A   Mostly Cloudy
1:53 PM 37.9 °F 26.3 °F 35.1 °F 89% 29.99 in 10.0 mi SSE 26.5 mph 36.8 mph N/A   Overcast
2:19 PM 37.4 °F 25.2 °F 33.8 °F 87% 29.97 in 10.0 mi SSE 28.8 mph 36.8 mph N/A   Overcast
2:33 PM 37.4 °F 26.1 °F 33.8 °F 87% 29.96 in 10.0 mi SSE 24.2 mph 35.7 mph N/A   Overcast
2:53 PM 37.9 °F 26.3 °F 35.1 °F 89% 29.96 in 10.0 mi SE 26.5 mph 35.7 mph N/A   Overcast
3:17 PM 37.4 °F 24.8 °F 35.6 °F 93% 29.95 in 10.0 mi SSE 31.1 mph 38.0 mph N/A   Overcast
3:53 PM 37.9 °F 25.5 °F 35.1 °F 89% 29.92 in 10.0 mi SE 31.1 mph 38.0 mph N/A   Overcast
4:53 PM 39.0 °F 26.6 °F 36.0 °F 89% 29.87 in 10.0 mi SSE 33.4 mph 46.0 mph N/A   Overcast
5:18 PM 39.2 °F 27.0 °F 37.4 °F 93% 29.85 in 10.0 mi SSE 32.2 mph 46.0 mph N/A   Overcast
5:50 PM 39.2 °F 27.6 °F 37.4 °F 93% 29.84 in 10.0 mi SE 28.8 mph 38.0 mph N/A   Overcast
5:53 PM 39.0 °F 27.6 °F 37.0 °F 93% 29.84 in 10.0 mi SE 27.6 mph 38.0 mph N/A   Overcast
6:23 PM 39.2 °F 27.8 °F 37.4 °F 93% 29.81 in 10.0 mi SE 27.6 mph 41.4 mph N/A   Overcast
6:53 PM 39.9 °F 28.0 °F 37.0 °F 89% 29.78 in 10.0 mi SE 32.2 mph 38.0 mph 0.00 in Rain Light Rain
7:11 PM 39.2 °F 26.8 °F 37.4 °F 93% 29.77 in 10.0 mi SE 33.4 mph 44.9 mph 0.00 in Rain Light Rain
7:53 PM 41.0 °F 29.3 °F 37.9 °F 89% 29.75 in 10.0 mi SSE 33.4 mph 41.4 mph 0.01 in Rain Light Rain
8:41 PM 41.0 °F 30.5 °F 39.2 °F 93% 29.72 in 5.0 mi SE 26.5 mph 41.4 mph 0.02 in Rain Light Rain
8:53 PM 41.0 °F 29.7 °F 39.0 °F 93% 29.72 in 3.0 mi SSE 31.1 mph 46.0 mph 0.05 in   Overcast
9:16 PM 41.0 °F 29.3 °F 39.2 °F 93% 29.69 in 5.0 mi SSE 33.4 mph 44.9 mph 0.05 in Rain Light Rain
9:53 PM 41.0 °F 29.0 °F 39.9 °F 96% 29.68 in 3.0 mi SE 35.7 mph 46.0 mph 0.09 in   Overcast
10:13 PM 41.0 °F 29.1 °F 39.2 °F 93% 29.67 in 4.0 mi SE 34.5 mph 44.9 mph 0.08 in Rain Rain
10:53 PM 42.1 °F 30.1 °F 41.0 °F 96% 29.65 in 3.0 mi SE 38.0 mph 47.2 mph 0.16 in   Overcast
11:17 PM 42.8 °F 31.9 °F 41.0 °F 93% 29.63 in 2.5 mi SE 32.2 mph 44.9 mph 0.08 in Rain Rain
11:40 PM 42.8 °F 31.9 °F 42.8 °F 100% 29.63 in 3.0 mi SE 32.2 mph 42.6 mph 0.15 in Rain Rain
11:53 PM 44.1 °F 33.8 °F 43.0 °F 96% 29.63 in 4.0 mi SE 31.1 mph 40.3 mph 0.19 in Rain Rain